Terug naar catalogus

GSTAR 1

ActiefCommunicatieGEO
NORAD 15677·PAYLOAD·🇺🇸 United States

Gelanceerd May 8, 1985 vanaf Guiana Space Centre

Loading…

TLE

VersSource: Space-Track

Epoch: Sep 13, 2026, 08:11 UTC

1 15677U 85035A   26256.34124880 -.00000121  00000-0  00000-0 0  9993
2 15677  14.2887 348.0384 0004237 168.9093 213.0341  1.00272198126092

Volg GSTAR 1 in realtime met AllMySat

Download on the App Store